CZ-4 DEB, 26150

Orbit data source: Space-Track

CZ-4 DEB, 26150 is space debris in SSO originally from a launch on Thu, 14 Oct 1999 UTC launched from the Taiyaun Space Center, China (TSC). Debris objects in space refer to the collection of defunct objects orbiting the Earth. Examples of debris include non-operational satellites, rocket bodies, and fragments generated from explosions, collisions, or faulty payload assembly.

Loading next visibility...
Identifier
26150, 1999-057AL
Orbit
SSO
Country
Flag of CNCN / PRC
Related business
Manufacturer
Unknown
Mission
Spacecraft
Bus & Motor
Unknown
Mass
Unknown
Launch date (UTC)
1999-10-14 (26 years ago)
Launch vehicle
Unknown
Launch site
Taiyaun Space Center, China (TSC)
Object type
Payload
Rocket body
Debris
Shape & HBR
Unknown shape, 0.1 m
Radar Cross Section
Small (<0.1 m²)

Expand to show TLE details & history
Last TLE update: 3 days ago

TLE from 3 days ago
0 CZ-4 DEB
1 26150U 99057AL  26035.73146645  .00000348  00000-0  23396-3 0  9997
2 26150  99.1015 119.0831 0339152  73.3061  54.8967 13.81736961297100
Epoch: 2026-02-04T17:33Z
TLE epoch observation values (Epoch: 2026-02-04T17:33:18.701Z)
Latitude
47.82901°
Longitude
-89.00664°
Altitude
827.835 km
Speed
7.513 km/s
True Right ascension
20h 36m 51s
True Declination
47° 39' 34"
Sunlit
Object was in daylight at epoch
Visualization orbit readout
Latitude
Unknown
Longitude
Unknown
Altitude
Unknown
Speed
Unknown
Apparent Right ascension
Unknown
Apparent Declination
Unknown
Sunlit
N/A
Visualization observer readout
Local Sidereal Time
08:52:55
Azimuth
Unknown
Elevation
Unknown
Doppler factor
Unknown
Orbital elements
Apogee altitude
1,203.66 km
Perigee altitude
706.253 km
Semi-major axis
7,333.093 km
Eccentricity
0.03392
Inclination
99.1015°
RAAN
119.0831°
Arg. of periapsis
73.3061°
True anomaly
58.15383°
Mean anomaly
54.8967°
Eccentric anomaly
56.51743°
Mean motion
3.45631 °/min
Orbital period
104.16 mins
BSTAR
0.00023396
Loading maneuver chart data...
Computing Atmospheric mass density...
Loading historical data...
Loading historical data...
Loading historical data...
Loading historical data...
Loading historical data...
Loading historical data...
Loading historical data...

Documentation

Showing up to 5 results
|